Volver al catálogo

STARLINK-33613

ActivoComunicacionesVLEO
NORAD 63286·PAYLOAD·🇺🇸 United States

Lanzado Mar 15, 2025 desde Cape Canaveral Space Force Station

Loading…

Próximos Pases (próximas 24 horas)

TLE

ActualizadoSource: CelesTrak SupGP

Época: Sep 14, 2026, 23:10 UTC

1 63286C 25053X   26257.96576389  .00026462  00000+0  95870-3 0  2573
2 63286  43.0001 253.0218 0001420 258.0472 286.5502 15.27557026    10

Sigue STARLINK-33613 en tiempo real con AllMySat

Download on the App Store